KE0BZR Weather Reports


Display with metric or nautical units.
time (UTC)temp
F
wind
direction
speed
MPH
gust
MPH
rain 1hr
in
rain 24hr
in
rain mn
in
humidity
%
barometer
mb
20230203141559 27 286 0.0 8.0 0.00 0.00 0.00 50 1028.2
20230203140058 26 311 0.0 0.0 0.00 0.00 0.00 53 1028.3
20230203134557 26 313 0.0 5.0 0.00 0.00 0.00 51 1028.4
20230203133100 26 278 1.0 8.0 0.00 0.00 0.00 53 1028.5
20230203131554 26 329 0.0 0.0 0.00 0.00 0.00 52 1028.5
20230203130054 25 329 0.0 0.0 0.00 0.00 0.00 55 1028.5
20230203124559 26 329 0.0 0.0 0.00 0.00 0.00 54 1028.2
20230203123053 27 335 0.0 0.0 0.00 0.00 0.00 51 1028.2
20230203121553 26 336 0.0 0.0 0.00 0.00 0.00 53 1028.2
20230203120053 26 336 0.0 0.0 0.00 0.00 0.00 51 1028.0
20230203114551 26 333 0.0 0.0 0.00 0.00 0.00 53 1028.2
20230203113052 27 333 0.0 0.0 0.00 0.00 0.00 52 1028.2
20230203111554 29 333 0.0 0.0 0.00 0.00 0.00 48 1028.2
20230203110047 27 355 0.0 0.0 0.00 0.00 0.00 50 1028.2
20230203104546 27 273 0.0 4.0 0.00 0.00 0.00 51 1028.2
20230203103052 28 280 0.0 0.0 0.00 0.00 0.00 51 1028.4
20230203101542 27 270 0.0 0.0 0.00 0.00 0.00 52 1028.5
20230203100046 26 270 0.0 0.0 0.00 0.00 0.00 58 1028.7
20230203094550 27 268 0.0 0.0 0.00 0.00 0.00 56 1028.8
20230203093101 28 355 0.0 0.0 0.00 0.00 0.00 53 1028.8
20230203091541 26 304 0.0 2.0 0.00 0.00 0.00 60 1029.1
20230203090039 26 302 0.0 3.0 0.00 0.00 0.00 63 1029.1
20230203084534 26 155 0.0 0.0 0.00 0.00 0.00 64 1029.2
20230203083038 27 155 0.0 0.0 0.00 0.00 0.00 60 1029.4
20230203081531 27 290 0.0 0.0 0.00 0.00 0.00 58 1029.4
20230203080035 28 287 0.0 5.0 0.00 0.00 0.00 55 1029.5
20230203074527 26 331 0.0 3.0 0.00 0.00 0.00 59 1029.6
20230203073028 27 331 0.0 0.0 0.00 0.00 0.00 62 1029.7
20230203071522 25 331 0.0 0.0 0.00 0.00 0.00 70 1030.1
20230203070018 26 328 0.0 1.0 0.00 0.00 0.00 70 1030.1
20230203064520 26 327 0.0 2.0 0.00 0.00 0.00 70 1030.2
20230203063016 26 302 0.0 0.0 0.00 0.00 0.00 71 1030.5
20230203061517 27 333 0.0 2.0 0.00 0.00 0.00 69 1030.6
20230203060033 26 329 1.0 4.0 0.00 0.00 0.00 71 1030.7
20230203054515 27 284 0.0 0.0 0.00 0.00 0.00 69 1030.5
20230203053018 28 281 1.0 4.0 0.00 0.00 0.00 70 1030.4
20230203051514 28 267 1.0 4.0 0.00 0.00 0.00 69 1030.4
20230203050013 29 309 0.0 4.0 0.00 0.00 0.00 70 1030.5
20230203044515 29 269 0.0 0.0 0.00 0.00 0.00 71 1030.3
20230203043012 28 309 0.0 0.0 0.00 0.00 0.00 72 1030.6
20230203041512 29 317 0.0 0.0 0.00 0.00 0.00 69 1030.6
20230203040116 30 311 0.0 0.0 0.00 0.00 0.00 70 1030.7
20230203034513 29 217 0.0 0.0 0.00 0.00 0.00 70 1030.6
20230203033033 30 67 0.0 3.0 0.00 0.00 0.00 68 1030.5
20230203031510 31 286 0.0 0.0 0.00 0.00 0.00 66 1030.4
20230203030017 32 286 0.0 0.0 0.00 0.00 0.00 62 1030.3
20230203024512 33 306 0.0 0.0 0.00 0.00 0.00 62 1030.1
20230203023006 33 334 0.0 0.0 0.00 0.00 0.00 61 1029.9
20230203021504 34 334 0.0 0.0 0.00 0.00 0.00 60 1029.8
20230203020011 34 335 0.0 5.0 0.00 0.00 0.00 59 1029.8
20230203014503 35 335 3.0 8.0 0.00 0.00 0.00 58 1029.6
20230203013001 36 339 4.0 8.0 0.00 0.00 0.00 56 1029.5
20230203011601 37 339 4.0 6.0 0.00 0.00 0.00 54 1029.4
20230203010101 37 333 3.0 5.0 0.00 0.00 0.00 54 1029.3
20230203004609 38 348 3.0 8.0 0.00 0.00 0.00 54 1029.0
20230203003059 39 317 4.0 8.0 0.00 0.00 0.00 53 1028.9
20230203001606 39 315 4.0 10.0 0.00 0.00 0.00 52 1028.8
20230203000058 41 350 5.0 11.0 0.00 0.00 0.00 50 1028.5
20230202234608 43 19 7.0 13.0 0.00 0.00 0.00 46 1028.3
20230202233058 50 332 0.0 3.0 0.00 0.00 0.00 30 1027.9
20230202231603 51 167 0.0 0.0 0.00 0.00 0.00 28 1027.7
20230202230109 50 166 0.0 0.0 0.00 0.00 0.00 30 1027.5
20230202224553 50 163 0.0 0.0 0.00 0.00 0.00 30 1027.3
20230202223049 49 138 0.0 4.0 0.00 0.00 0.00 30 1027.2
20230202221549 49 132 1.0 5.0 0.00 0.00 0.00 30 1027.2
20230202220049 49 178 0.0 3.0 0.00 0.00 0.00 30 1027.1
20230202214558 48 152 0.0 4.0 0.00 0.00 0.00 31 1026.9
20230202213044 48 148 1.0 7.0 0.00 0.00 0.00 32 1026.8
20230202211553 48 141 2.0 7.0 0.00 0.00 0.00 32 1026.8
20230202210042 48 167 0.0 3.0 0.00 0.00 0.00 31 1026.9
20230202204539 47 136 1.0 7.0 0.00 0.00 0.00 31 1027.0
20230202203056 46 148 0.0 5.0 0.00 0.00 0.00 31 1027.3
20230202201537 46 155 2.0 7.0 0.00 0.00 0.00 32 1027.4
20230202200033 46 160 1.0 8.0 0.00 0.00 0.00 33 1027.6
20230202194535 45 146 2.0 5.0 0.00 0.00 0.00 32 1027.9
20230202193027 45 136 2.0 7.0 0.00 0.00 0.00 32 1028.2
20230202191524 44 150 0.0 7.0 0.00 0.00 0.00 33 1028.5
20230202190022 44 128 2.0 7.0 0.00 0.00 0.00 33 1028.7
20230202184518 44 136 0.0 5.0 0.00 0.00 0.00 34 1028.9
20230202183034 43 155 0.0 5.0 0.00 0.00 0.00 37 1028.9
20230202181517 42 144 1.0 4.0 0.00 0.00 0.00 37 1029.2
20230202180008 41 170 2.0 5.0 0.00 0.00 0.00 37 1029.3
20230202174503 40 139 1.0 5.0 0.00 0.00 0.00 39 1029.4
20230202173058 40 140 0.0 2.0 0.00 0.00 0.00 44 1029.5
20230202171603 39 176 0.0 2.0 0.00 0.00 0.00 45 1029.7
20230202170053 39 147 0.0 1.0 0.00 0.00 0.00 46 1029.5
20230202164547 38 325 0.0 0.0 0.00 0.00 0.00 48 1029.4
20230202163044 37 316 0.0 0.0 0.00 0.00 0.00 48 1029.4
20230202161543 37 316 0.0 0.0 0.00 0.00 0.00 51 1029.4
20230202160034 34 315 0.0 0.0 0.00 0.00 0.00 55 1029.4
20230202154529 32 315 0.0 0.0 0.00 0.00 0.00 59 1029.2
20230202153030 29 315 0.0 0.0 0.00 0.00 0.00 64 1029.1
20230202151524 26 315 0.0 0.0 0.00 0.00 0.00 71 1029.0
20230202150029 23 315 0.0 5.0 0.00 0.00 0.00 72 1028.9
20230202144511 22 338 0.0 0.0 0.00 0.00 0.00 72 1028.9
20230202143023 22 333 0.0 0.0 0.00 0.00 0.00 75 1028.4